SCP
0 0 0 0 0 0 0 0 0 0 0 0 0 0 0 0 -0 -0 -0 -0 0 0 0 0 0 0 0 0 0 0 0 0 0 0 0 0 0 0 0 0 0 0 0
0 0 0 0 0 0 0 0 0 0 0 0 0 0 -0 0 -0 -0 -0 -0 -0 -0 -0 -0 0 0 0 0 0 0 0 0 0 0 0 0 0 0 0 0 0 0 0
0 0 0 0 0 0 0 0 0 0 0 0 -0 -0 -0 -0 -0 -0 -0 -0 -0 0 0 -0 -0 -0 0 0 0 0 0 0 0 0 0 0 0 0 0 0 0 0 0
0 0 0 0 0 0 0 0 0 0 0 -0 -0 -0 -0 -0 -0 -0 -0 -0 -0 0 0 0 0 0 0 0 0 0 0 0 0 0 0 0 0 0 0 0 0 0 0
0 0 0 0 0 0 0 0 0 0 0 0 0 -0 -0 -0 -0 -0 -0 -0 -0 -0 -0 0 0 0 0 0 0 0 0 0 0 0 0 0 0 0 0 0 0 0 0
0 0 0 0 0 0 0 0 0 0 0 0 0 0 0 0 0 0 0 0 0 0 0 0 0 0 0 0 0 0 0 0 0 0 0 0 0 0 0 0 0 0 0
0 0 0 0 0 0 0 0 0 0 0 0 0 0 0 0 -0 0 0 0 0 0 0 0 0 0 0 0 0 0 0 0 0 0 0 0 0 0 0 0 0 0 0
0 0 0 0 0 0 0 0 0 0 0 0 0 0 0 0 -0 -0 0 0 0 0 0 0 0 0 0 0 0 0 0 0 0 0 0 0 0 0 0 0 0 0 0
0 0 0 0 0 0 0 0 0 0 0 0 0 0 0 0 -0 -0 0 0 0 0 0 0 0 0 0 0 0 0 0 0 0 0 0 0 0 0 0 0 0 0 0
0 0 0 0 0 0 0 0 0 0 0 0 0 0 0 0 -0 0 0 0 0 0 0 0 0 0 0 0 0 0 0 0 0 0 0 0 0 0 0 0 0 0 0
0 0 0 0 0 0 0 0 0 0 0 0 0 0 0 0 0 0 0 0 0 0 0 0 0 0 0 0 0 0 0 0 0 0 0 0 0 0 0 0 0 0 0
0 0 0 0 0 0 0 0 0 0 0 0 0 0 0 0 0 0 0 0 0 0 0 0 0 0 0 0 0 0 0 0 0 0 0 0 0 0 0 0 0 0 0
0 0 0 0 0 0 0 0 0 0 0 0 0 0 0 0 0 0 0 -0 0 0 0 0 0 0 0 0 0 0 0 0 0 0 0 0 0 0 0 0 0 0 0
0 0 0 0 0 0 0 0 0 0 0 0 0 0 -0 -0 0 0 0 0 0 0 0 0 0 0 0 0 0 0 0 0 0 0 0 0 0 0 0 0 0 0 0
0 0 0 0 0 0 0 0 0 0 0 0 0 -0 -0 -0 -0 -0 -0 0 0 0 0 0 0 0 0 0 0 0 0 0 0 0 0 0 0 0 0 0 0 0 0
0 0 0 0 0 0 0 0 0 0 0 0 -0 -0 0 -0 -0 -0 -0 -0 0 0 0 0 0 0 0 0 0 0 0 0 0 0 0 0 0 0 0 0 0 0 0
0 0 0 0 0 0 0 0 0 0 0 0 0 0 -0 0 -0 -0 0 0 0 0 0 0 0 0 0 0 0 0 0 0 0 0 0 0 0 0 0 0 0 0 0
0 0 0 0 0 0 0 0 0 0 0 0 0 0 0 0 0 0 0 0 0 0 0 0 0 0 0 0 0 0 0 0 0 0 0 0 0 0 0 0 -0 0 0
0 0 0 0 0 0 0 0 0 0 0 -0 0 0 0 0 0 0 0 0 0 0 0 0 0 0 0 0 0 0 0 0 0 0 0 0 0 0 0 0 0 0 0
0 0 0 0 0 0 0 0 0 0 0 0 0 0 0 0 0 0 0 0 0 0 0 0 0 0 0 0 0 0 0 0 0 0 0 0 0 0 0 0 0 0 0
0 0 0 0 0 0 0 0 0 0 0 0 0 0 0 0 0 0 0 0 0 0 0 0 0 0 0 0 0 0 0 0 0 0 0 0 0 0 0 0 0 0 0
0 0 0 0 0 0 0 0 0 0 0 0 0 0 0 0 0 0 0 0 0 0 0 0 0 0 0 0 0 0 0 0 0 0 0 0 0 0 0 0 0 0 0
0 0 0 0 0 0 0 0 0 0 0 0 0 0 0 0 0 0 0 0 0 0 0 0 0 0 0 0 0 0 0 0 0 0 0 0 0 0 0 0 0 0 0
0 0 0 0 0 0 0 0 0 0 0 0 0 0 0 0 0 0 0 0 0 0 0 0 0 0 0 0 0 0 0 0 0 0 0 0 0 0 0 0 0 0 0
0 0 0 0 0 -0 0 0 0 0 0 0 0 0 0 0 0 0 0 0 0 0 0 0 0 0 0 0 0 0 0 0 0 0 0 0 0 0 0 0 0 0 0
0 0 0 0 0 -0 -0 -0 -0 0 0 0 0 0 0 0 0 0 0 0 0 0 0 0 0 0 0 0 0 0 0 0 -0 0 0 0 0 0 0 0 0 0 0
Wind_Speed_500mb
3 9 13 18 23 27 31 35 38 40 43 47 51 56 59 64 68 72 72 72 72 70 67 68 66 61 61 58 54 53 56 62 84 97 99 99 97 94 86 84 79 80 79
10 16 21 25 29 34 38 41 45 47 49 53 58 63 69 74 77 81 83 82 85 87 86 85 80 74 74 71 66 64 62 60 66 82 85 91 96 91 93 92 91 91 90
14 21 27 34 38 41 46 49 51 55 59 65 74 82 88 91 92 89 88 90 89 89 89 91 93 91 87 81 78 78 75 71 70 75 84 80 82 82 84 90 94 93 96
21 26 33 39 42 46 50 52 54 59 67 75 83 90 94 97 96 95 93 90 89 90 93 94 95 95 96 92 88 84 83 81 78 81 86 86 82 78 79 83 89 93 96
31 33 38 44 48 51 55 56 59 66 75 81 86 90 92 93 94 92 92 94 95 99 100 98 98 99 97 94 86 91 87 87 86 86 93 91 94 84 81 79 84 88 93
38 42 46 51 52 57 59 60 67 76 79 85 87 89 89 89 91 94 94 96 99 102 105 99 91 95 99 88 78 75 71 73 79 73 78 84 95 82 80 75 76 77 89
48 48 50 55 58 62 62 68 75 78 82 84 85 88 91 93 94 93 91 89 93 96 96 90 86 83 77 79 81 74 75 79 77 78 86 87 83 83 74 70 75 80 86
53 53 52 57 62 61 64 72 75 80 83 85 86 88 92 94 91 88 84 83 86 85 80 72 70 72 67 64 67 76 85 94 99 94 100 105 99 88 76 82 79 83 87
56 54 55 57 58 61 69 71 75 80 81 82 86 90 91 91 84 80 74 75 76 76 71 62 61 64 58 53 59 71 79 85 81 80 83 90 94 89 85 79 82 78 84
54 54 55 56 59 65 68 70 74 77 81 83 86 85 84 84 76 71 66 62 68 72 72 72 67 61 57 55 61 70 83 86 84 70 70 79 84 101 96 93 96 86 85
55 54 56 57 60 65 67 68 72 77 80 83 85 83 79 71 71 66 58 57 66 73 78 79 78 65 62 60 61 69 78 76 79 80 90 98 87 88 90 91 101 99 97
53 54 53 55 58 61 65 66 68 71 77 80 82 83 75 68 66 68 58 56 59 69 76 80 84 72 67 69 72 80 78 76 83 89 88 86 88 90 83 89 92 91 98
54 53 53 55 56 56 60 62 67 67 73 77 76 79 80 75 74 75 70 62 65 71 80 81 80 80 78 79 80 77 74 82 88 90 95 96 97 89 91 85 89 91 88
55 55 54 54 54 54 56 57 62 63 68 72 73 80 84 81 74 76 74 83 81 80 81 86 87 82 77 84 92 85 83 85 89 94 93 93 90 87 93 86 85 92 88
56 54 53 55 55 55 56 55 57 57 60 63 63 67 72 72 71 67 69 72 72 75 77 82 85 77 74 76 83 91 94 89 92 96 90 84 81 84 88 101 92 86 84
54 53 53 54 52 54 57 58 45 50 52 53 47 44 53 54 57 61 63 66 65 61 61 61 59 60 66 74 76 73 72 76 85 81 81 81 80 82 74 90 71 92 88
55 53 53 52 52 54 55 56 61 42 41 47 44 45 44 47 53 57 58 55 59 52 48 49 53 57 62 66 69 65 71 75 78 77 72 73 74 79 86 93 110 88 73
52 51 52 49 50 52 53 50 49 50 47 41 39 45 43 46 47 50 50 53 48 45 49 52 54 56 59 61 64 66 74 71 65 64 61 63 62 66 63 44 53 51 64
49 48 48 47 46 48 47 45 43 42 41 41 41 37 42 43 49 46 47 52 57 59 57 56 55 56 57 57 59 62 62 62 54 49 51 54 59 53 49 47 57 72 71
48 47 45 45 44 43 41 40 39 37 37 37 38 43 46 51 50 52 51 53 55 58 60 61 59 57 57 57 58 58 56 52 49 47 46 49 55 54 53 43 50 60 71
46 44 43 41 41 40 36 34 35 34 35 36 34 36 34 37 42 45 49 50 51 53 56 59 61 60 59 57 56 55 53 48 39 34 35 44 58 59 51 44 35 41 54
45 42 41 39 37 34 31 31 31 32 32 35 31 29 32 34 37 40 43 45 47 48 50 53 56 57 59 59 57 55 53 49 43 36 31 26 24 24 30 37 42 44 48
42 40 37 36 33 31 28 28 29 30 30 31 33 34 33 34 37 39 42 44 45 47 48 49 51 54 55 55 56 56 53 46 42 37 32 26 23 17 15 16 24 31 37
39 37 35 34 32 30 29 28 28 29 31 31 33 34 36 38 39 41 43 44 44 43 44 46 47 48 51 53 53 54 55 46 36 31 27 23 21 18 14 11 10 13 21
35 34 35 35 33 32 31 31 32 34 36 38 39 41 40 42 42 42 43 44 45 45 43 43 44 44 45 47 48 51 53 51 38 28 24 21 18 15 12 7 1 6 12
33 33 33 34 33 33 33 34 35 38 38 38 39 41 42 43 42 43 44 43 43 43 42 41 40 40 38 39 42 46 48 48 42 34 27 23 19 17 14 11 8 9 10
Wind_Direction_500mb
9 2 358 347 340 336 333 331 329 329 327 326 325 323 321 320 319 317 316 312 308 304 301 300 298 298 297 294 293 290 285 277 276 280 281 281 276 272 266 264 261 260 259
350 347 340 333 330 327 325 326 327 327 326 324 322 320 319 317 315 311 308 305 303 302 300 297 294 292 289 290 289 286 285 285 285 285 283 280 279 277 273 265 261 260 259
324 330 327 323 323 322 322 322 321 321 321 321 320 319 319 317 314 310 307 304 300 297 295 293 292 292 289 286 284 283 282 280 280 284 287 286 282 279 273 269 264 262 260
297 305 309 314 315 314 315 314 314 316 317 317 317 316 315 314 313 313 312 309 304 299 296 293 290 288 289 289 287 283 281 280 280 280 282 284 284 282 279 271 267 262 261
275 287 296 303 306 308 310 309 311 313 313 313 312 311 310 310 311 311 308 305 302 299 296 292 289 289 287 287 286 285 285 282 279 277 277 280 280 279 277 281 274 272 266
267 276 288 297 301 306 306 307 310 311 312 312 312 312 311 310 309 308 306 302 299 296 294 290 286 284 284 285 283 280 277 276 277 275 275 273 273 273 277 277 277 271 268
264 273 286 296 300 303 304 307 309 311 312 313 313 313 313 313 312 311 308 303 299 296 294 292 289 285 280 277 280 280 272 263 259 264 267 267 272 271 272 270 269 269 269
260 269 285 294 296 297 302 307 310 313 313 315 315 315 315 316 316 315 312 305 301 298 299 299 295 295 292 288 282 275 272 273 272 270 264 262 263 263 266 265 264 269 273
261 272 285 290 292 298 306 310 313 313 314 315 316 317 317 317 319 318 312 305 301 301 303 303 299 298 299 296 293 291 291 288 289 278 269 267 264 264 261 259 257 253 253
266 277 285 290 296 305 307 311 314 314 315 316 316 317 318 320 322 317 312 308 306 306 306 309 307 297 297 295 289 288 286 284 283 283 285 285 276 264 254 253 250 248 247
270 280 286 290 299 304 308 314 316 316 316 316 316 318 321 324 321 319 315 307 304 307 307 303 302 301 297 294 290 287 287 295 293 288 283 275 275 278 269 257 249 243 243
275 280 283 289 299 305 309 314 313 315 316 316 318 320 323 324 321 326 318 308 306 300 299 302 307 302 297 294 291 292 290 289 289 284 283 280 273 269 270 260 253 246 241
278 282 285 293 301 306 309 313 315 317 317 318 320 321 325 328 327 330 326 318 309 305 304 303 301 298 297 293 288 291 289 287 284 281 279 273 272 268 267 271 255 250 245
281 283 288 296 302 307 311 316 316 319 318 319 322 326 327 325 318 319 326 323 319 314 310 308 308 306 297 296 297 295 291 290 285 280 275 274 275 271 264 253 255 236 241
279 284 291 298 304 309 312 316 317 320 321 321 318 314 312 313 319 319 315 314 314 312 309 300 298 298 298 299 298 297 297 295 290 290 277 272 271 270 267 248 252 242 233
281 284 291 298 305 309 311 312 315 317 319 320 316 311 311 311 316 316 317 315 315 314 308 308 312 313 313 314 311 302 290 285 284 277 268 272 272 270 262 252 249 235 228
280 285 293 300 305 308 309 311 314 316 317 324 331 334 326 323 325 327 323 323 314 321 319 318 320 322 325 330 327 322 318 301 287 282 278 278 274 272 280 250 249 240 231
281 287 292 297 301 304 306 309 313 319 324 325 329 341 342 340 338 338 339 336 335 338 340 335 333 332 331 332 333 330 328 321 303 293 286 286 283 286 275 267 260 244 221
282 285 289 293 296 299 301 305 309 312 317 325 327 333 334 346 351 345 351 355 356 353 349 345 342 339 338 338 337 336 335 333 323 306 292 286 287 288 293 294 279 250 242
280 283 287 290 293 295 299 303 305 307 313 321 329 334 336 346 345 348 356 358 358 358 358 355 351 347 345 345 344 343 341 344 338 327 314 294 284 287 288 289 273 231 229
278 281 284 285 288 290 295 300 302 306 312 318 328 333 341 333 344 349 353 358 359 359 358 0 1 358 355 351 346 345 345 346 342 339 332 315 298 293 294 286 271 264 252
277 278 278 279 280 284 291 297 300 305 311 315 324 329 333 337 344 348 351 353 356 357 357 357 359 2 2 1 356 348 344 343 344 345 341 336 324 309 298 289 276 265 250
274 273 273 273 275 279 286 292 297 302 306 310 317 323 328 334 338 342 345 347 350 353 354 356 358 359 1 2 5 2 350 345 345 342 339 341 342 338 328 305 281 259 242
266 266 265 266 269 274 279 285 291 297 301 306 310 315 320 324 329 333 335 337 341 345 349 351 354 358 359 360 6 6 2 352 346 346 347 349 352 350 341 317 279 252 236
260 261 265 267 267 270 276 283 288 292 295 300 303 307 312 314 319 323 326 329 333 336 342 346 348 353 357 359 6 10 9 4 359 3 7 9 11 17 19 10 307 198 198
260 264 266 268 270 274 279 284 288 290 293 295 300 303 309 312 317 321 324 326 328 332 335 339 344 348 351 357 3 14 12 8 15 20 26 32 38 46 51 66 84 119 140
Wind_Speed_850mb
3 9 13 18 23 27 31 35 38 40 43 47 51 56 59 64 68 72 72 72 72 70 67 68 66 61 61 58 54 53 56 62 84 97 99 99 97 94 86 84 79 80 79
10 16 21 25 29 34 38 41 45 47 49 53 58 63 69 74 77 81 83 82 85 87 86 85 80 74 74 71 66 64 62 60 66 82 85 91 96 91 93 92 91 91 90
14 21 27 34 38 41 46 49 51 55 59 65 74 82 88 91 92 89 88 90 89 89 89 91 93 91 87 81 78 78 75 71 70 75 84 80 82 82 84 90 94 93 96
21 26 33 39 42 46 50 52 54 59 67 75 83 90 94 97 96 95 93 90 89 90 93 94 95 95 96 92 88 84 83 81 78 81 86 86 82 78 79 83 89 93 96
31 33 38 44 48 51 55 56 59 66 75 81 86 90 92 93 94 92 92 94 95 99 100 98 98 99 97 94 86 91 87 87 86 86 93 91 94 84 81 79 84 88 93
38 42 46 51 52 57 59 60 67 76 79 85 87 89 89 89 91 94 94 96 99 102 105 99 91 95 99 88 78 75 71 73 79 73 78 84 95 82 80 75 76 77 89
48 48 50 55 58 62 62 68 75 78 82 84 85 88 91 93 94 93 91 89 93 96 96 90 86 83 77 79 81 74 75 79 77 78 86 87 83 83 74 70 75 80 86
53 53 52 57 62 61 64 72 75 80 83 85 86 88 92 94 91 88 84 83 86 85 80 72 70 72 67 64 67 76 85 94 99 94 100 105 99 88 76 82 79 83 87
56 54 55 57 58 61 69 71 75 80 81 82 86 90 91 91 84 80 74 75 76 76 71 62 61 64 58 53 59 71 79 85 81 80 83 90 94 89 85 79 82 78 84
54 54 55 56 59 65 68 70 74 77 81 83 86 85 84 84 76 71 66 62 68 72 72 72 67 61 57 55 61 70 83 86 84 70 70 79 84 101 96 93 96 86 85
55 54 56 57 60 65 67 68 72 77 80 83 85 83 79 71 71 66 58 57 66 73 78 79 78 65 62 60 61 69 78 76 79 80 90 98 87 88 90 91 101 99 97
53 54 53 55 58 61 65 66 68 71 77 80 82 83 75 68 66 68 58 56 59 69 76 80 84 72 67 69 72 80 78 76 83 89 88 86 88 90 83 89 92 91 98
54 53 53 55 56 56 60 62 67 67 73 77 76 79 80 75 74 75 70 62 65 71 80 81 80 80 78 79 80 77 74 82 88 90 95 96 97 89 91 85 89 91 88
55 55 54 54 54 54 56 57 62 63 68 72 73 80 84 81 74 76 74 83 81 80 81 86 87 82 77 84 92 85 83 85 89 94 93 93 90 87 93 86 85 92 88
56 54 53 55 55 55 56 55 57 57 60 63 63 67 72 72 71 67 69 72 72 75 77 82 85 77 74 76 83 91 94 89 92 96 90 84 81 84 88 101 92 86 84
54 53 53 54 52 54 57 58 45 50 52 53 47 44 53 54 57 61 63 66 65 61 61 61 59 60 66 74 76 73 72 76 85 81 81 81 80 82 74 90 71 92 88
55 53 53 52 52 54 55 56 61 42 41 47 44 45 44 47 53 57 58 55 59 52 48 49 53 57 62 66 69 65 71 75 78 77 72 73 74 79 86 93 110 88 73
52 51 52 49 50 52 53 50 49 50 47 41 39 45 43 46 47 50 50 53 48 45 49 52 54 56 59 61 64 66 74 71 65 64 61 63 62 66 63 44 53 51 64
49 48 48 47 46 48 47 45 43 42 41 41 41 37 42 43 49 46 47 52 57 59 57 56 55 56 57 57 59 62 62 62 54 49 51 54 59 53 49 47 57 72 71
48 47 45 45 44 43 41 40 39 37 37 37 38 43 46 51 50 52 51 53 55 58 60 61 59 57 57 57 58 58 56 52 49 47 46 49 55 54 53 43 50 60 71
46 44 43 41 41 40 36 34 35 34 35 36 34 36 34 37 42 45 49 50 51 53 56 59 61 60 59 57 56 55 53 48 39 34 35 44 58 59 51 44 35 41 54
45 42 41 39 37 34 31 31 31 32 32 35 31 29 32 34 37 40 43 45 47 48 50 53 56 57 59 59 57 55 53 49 43 36 31 26 24 24 30 37 42 44 48
42 40 37 36 33 31 28 28 29 30 30 31 33 34 33 34 37 39 42 44 45 47 48 49 51 54 55 55 56 56 53 46 42 37 32 26 23 17 15 16 24 31 37
39 37 35 34 32 30 29 28 28 29 31 31 33 34 36 38 39 41 43 44 44 43 44 46 47 48 51 53 53 54 55 46 36 31 27 23 21 18 14 11 10 13 21
35 34 35 35 33 32 31 31 32 34 36 38 39 41 40 42 42 42 43 44 45 45 43 43 44 44 45 47 48 51 53 51 38 28 24 21 18 15 12 7 1 6 12
33 33 33 34 33 33 33 34 35 38 38 38 39 41 42 43 42 43 44 43 43 43 42 41 40 40 38 39 42 46 48 48 42 34 27 23 19 17 14 11 8 9 10
Wind_Direction_850mb
9 2 358 347 340 336 333 331 329 329 327 326 325 323 321 320 319 317 316 312 308 304 301 300 298 298 297 294 293 290 285 277 276 280 281 281 276 272 266 264 261 260 259
350 347 340 333 330 327 325 326 327 327 326 324 322 320 319 317 315 311 308 305 303 302 300 297 294 292 289 290 289 286 285 285 285 285 283 280 279 277 273 265 261 260 259
324 330 327 323 323 322 322 322 321 321 321 321 320 319 319 317 314 310 307 304 300 297 295 293 292 292 289 286 284 283 282 280 280 284 287 286 282 279 273 269 264 262 260
297 305 309 314 315 314 315 314 314 316 317 317 317 316 315 314 313 313 312 309 304 299 296 293 290 288 289 289 287 283 281 280 280 280 282 284 284 282 279 271 267 262 261
275 287 296 303 306 308 310 309 311 313 313 313 312 311 310 310 311 311 308 305 302 299 296 292 289 289 287 287 286 285 285 282 279 277 277 280 280 279 277 281 274 272 266
267 276 288 297 301 306 306 307 310 311 312 312 312 312 311 310 309 308 306 302 299 296 294 290 286 284 284 285 283 280 277 276 277 275 275 273 273 273 277 277 277 271 268
264 273 286 296 300 303 304 307 309 311 312 313 313 313 313 313 312 311 308 303 299 296 294 292 289 285 280 277 280 280 272 263 259 264 267 267 272 271 272 270 269 269 269
260 269 285 294 296 297 302 307 310 313 313 315 315 315 315 316 316 315 312 305 301 298 299 299 295 295 292 288 282 275 272 273 272 270 264 262 263 263 266 265 264 269 273
261 272 285 290 292 298 306 310 313 313 314 315 316 317 317 317 319 318 312 305 301 301 303 303 299 298 299 296 293 291 291 288 289 278 269 267 264 264 261 259 257 253 253
266 277 285 290 296 305 307 311 314 314 315 316 316 317 318 320 322 317 312 308 306 306 306 309 307 297 297 295 289 288 286 284 283 283 285 285 276 264 254 253 250 248 247
270 280 286 290 299 304 308 314 316 316 316 316 316 318 321 324 321 319 315 307 304 307 307 303 302 301 297 294 290 287 287 295 293 288 283 275 275 278 269 257 249 243 243
275 280 283 289 299 305 309 314 313 315 316 316 318 320 323 324 321 326 318 308 306 300 299 302 307 302 297 294 291 292 290 289 289 284 283 280 273 269 270 260 253 246 241
278 282 285 293 301 306 309 313 315 317 317 318 320 321 325 328 327 330 326 318 309 305 304 303 301 298 297 293 288 291 289 287 284 281 279 273 272 268 267 271 255 250 245
281 283 288 296 302 307 311 316 316 319 318 319 322 326 327 325 318 319 326 323 319 314 310 308 308 306 297 296 297 295 291 290 285 280 275 274 275 271 264 253 255 236 241
279 284 291 298 304 309 312 316 317 320 321 321 318 314 312 313 319 319 315 314 314 312 309 300 298 298 298 299 298 297 297 295 290 290 277 272 271 270 267 248 252 242 233
281 284 291 298 305 309 311 312 315 317 319 320 316 311 311 311 316 316 317 315 315 314 308 308 312 313 313 314 311 302 290 285 284 277 268 272 272 270 262 252 249 235 228
280 285 293 300 305 308 309 311 314 316 317 324 331 334 326 323 325 327 323 323 314 321 319 318 320 322 325 330 327 322 318 301 287 282 278 278 274 272 280 250 249 240 231
281 287 292 297 301 304 306 309 313 319 324 325 329 341 342 340 338 338 339 336 335 338 340 335 333 332 331 332 333 330 328 321 303 293 286 286 283 286 275 267 260 244 221
282 285 289 293 296 299 301 305 309 312 317 325 327 333 334 346 351 345 351 355 356 353 349 345 342 339 338 338 337 336 335 333 323 306 292 286 287 288 293 294 279 250 242
280 283 287 290 293 295 299 303 305 307 313 321 329 334 336 346 345 348 356 358 358 358 358 355 351 347 345 345 344 343 341 344 338 327 314 294 284 287 288 289 273 231 229
278 281 284 285 288 290 295 300 302 306 312 318 328 333 341 333 344 349 353 358 359 359 358 0 1 358 355 351 346 345 345 346 342 339 332 315 298 293 294 286 271 264 252
277 278 278 279 280 284 291 297 300 305 311 315 324 329 333 337 344 348 351 353 356 357 357 357 359 2 2 1 356 348 344 343 344 345 341 336 324 309 298 289 276 265 250
274 273 273 273 275 279 286 292 297 302 306 310 317 323 328 334 338 342 345 347 350 353 354 356 358 359 1 2 5 2 350 345 345 342 339 341 342 338 328 305 281 259 242
266 266 265 266 269 274 279 285 291 297 301 306 310 315 320 324 329 333 335 337 341 345 349 351 354 358 359 360 6 6 2 352 346 346 347 349 352 350 341 317 279 252 236
260 261 265 267 267 270 276 283 288 292 295 300 303 307 312 314 319 323 326 329 333 336 342 346 348 353 357 359 6 10 9 4 359 3 7 9 11 17 19 10 307 198 198
260 264 266 268 270 274 279 284 288 290 293 295 300 303 309 312 317 321 324 326 328 332 335 339 344 348 351 357 3 14 12 8 15 20 26 32 38 46 51 66 84 119 140